Regional Weather Roundup
Issued by NWS State College, PA

Home | Current Version | Previous Version | Graphics & Text | Print | Product List | Glossary On
Versions: 1 2 3 4 5 6 7 8 9 10 11 12 13 14 15 16 17 18 19 20 21 22 23 24 25 26 27 28 29 30 31 32 33 34 35 36 37 38 39 40 41 42 43 44 45 46 47 48 49 50
000
ASUS41 KCTP 281910
RWRCTP

REGIONAL WEATHER ROUNDUP
NATIONAL WEATHER SERVICE STATE COLLEGE PA
300 PM EDT THU APR 28 2016

Note: "fair" indicates few or no clouds below 12,000 feet with no
significant weather and/or obstructions to visibility.

* = STATION THAT DOES NOT REPORT PRECIPITATION /E.G. RAIN...SNOW...ETC/
    THUNDER OR FOG.

PAZ002>004-007>009-013>016-020>023-029>032-282000-
WESTERN PENNSYLVANIA

CITY           SKY/WX    TMP DP  RH WIND       PRES   REMARKS
ERIE           LGT RAIN  47  36  65 NE8       29.96S
MEADVILLE      LGT RAIN  44  39  82 E10G20    29.93S
FRANKLIN*      CLOUDY    43  39  87 E8        29.95S
NEW CASTLE     LGT RAIN  45  43  93 E8        29.92S FOG
BEAVER COUNTY  LGT RAIN  45  43  93 CALM      29.90R
BUTLER*        CLOUDY    45  39  81 E10       29.92S
PITTSBURGH INT DRIZZLE   51  48  89 NE8       29.88R FOG
PITTSBURGH     CLOUDY    55  53  93 SE8       29.86R FOG
INDIANA*       CLOUDY    46  45  93 E12       29.95S
LATROBE        DRIZZLE   54  54 100 SE12      29.88F
WASHINGTON CO* CLOUDY    59  55  88 CALM      29.87S
$$

PAZ004>006-010>012-017>019-024>028-033>037-041-042-045-046-049>053-282000-
CENTRAL PENNSYLVANIA

CITY           SKY/WX    TMP DP  RH WIND       PRES   REMARKS
BRADFORD       LGT RAIN  45  28  51 SE10      29.98R
DUBOIS         LGT RAIN  40  36  86 E15       29.94F FOG
CLEARFIELD     LGT RAIN  40  37  89 NE12      29.99F FOG
JOHNSTOWN      CLOUDY    45  42  89 SE9       29.92S FOG
ALTOONA        LGT RAIN  42  39  89 VRB6      29.98S FOG
STATE COLLEGE  LGT RAIN  41  37  87 NE8       30.01F
WILLIAMSPORT   LGT RAIN  48  38  68 N6        30.02S
SELINSGROVE    RAIN      46  41  82 S3        30.05R
FT INDIANTOWN  LGT RAIN  44  41  89 N6        30.04S FOG
CAPITAL CITY     N/A     45  40  82 MISG      30.03F
HARRISBURG     LGT RAIN  45  41  86 NE6       30.02F FOG
YORK           LGT RAIN  45  42  89 NE7       30.01F FOG
$$

PAZ038>040-043-044-047-048-054-055-060>062-067>071-282000-
EASTERN PENNSYLVANIA

CITY           SKY/WX    TMP DP  RH WIND       PRES   REMARKS
SCRANTON       LGT RAIN  53  31  42 W7        29.99S
MOUNT POCONO   LGT RAIN  50  26  39 S6        29.99S
ALLENTOWN      LGT RAIN  55  33  43 SE6       30.02F
QUAKERTOWN*    CLOUDY    50  37  62 CALM      30.03S
READING        RAIN      50  39  66 CALM      30.03S
LANCASTER      RAIN      46  42  86 N9        30.03R FOG
COATESVILLE    CLOUDY    46  45  93 E8G15     30.03S
POTTSTOWN      LGT RAIN  49  39  68 CALM      30.04S
BLUE BELL      CLOUDY    46  39  76 CALM      30.03S
DOYLESTOWN     LGT RAIN  49  33  54 SE6       30.01F
WILLOW GROVE   NOT AVBL
NORTH PHILA    LGT RAIN  50  39  66 SE7       30.05F HAZE
PHILADELPHIA   LGT RAIN  49  41  74 E10       30.04S
$$



USA.gov is the U.S. government's official web portal to all federal, state and local government web resources and services.